Simultaneous Nadir Overpasses (SNOs) Predictions

Prediction of SNOs between AQUA and NPP Satellite Orbit:

Table of predicted SNOs for the next 14.0 days since TLE Epoch: 8/12/2023
Index Date (AQUA) Time (AQUA) Lat,Lon (AQUA) SZA (AQUA ) Date (NPP) Time (NPP) Lat,Lon (NPP) SZA (NPP ) Distance(km) Time Diff (sec)
1 08/12/2023 03:22:58 80.76, 40.31 75.18 08/12/2023 03:23:12 80.76, 40.17 75.19 2.54 14
2 08/14/2023 17:08:16 -80.76, 13.93 104.06 08/14/2023 17:07:51 -80.75, 13.93 104.05 0.40 25
3 08/14/2023 17:57:37 80.82,-177.56 75.81 08/14/2023 17:58:32 80.83,-177.50 75.77 1.10 55
4 08/17/2023 06:53:34 80.71, -12.89 76.80 08/17/2023 06:52:32 80.71, -12.93 76.85 0.81 62
5 08/17/2023 07:42:56 -80.80, 155.79 103.36 08/17/2023 07:43:13 -80.80, 155.89 103.39 1.80 17
6 08/19/2023 21:28:13 80.76, 129.00 77.52 08/19/2023 21:27:54 80.76, 128.96 77.53 0.76 19
7 08/19/2023 22:17:35 -80.84, -62.29 102.65 08/19/2023 22:18:35 -80.84, -62.18 102.71 2.12 60
8 08/22/2023 11:13:29 -80.77, 102.85 101.70 08/22/2023 11:12:33 -80.77, 103.03 101.69 3.22 56
9 08/22/2023 12:02:51 80.80, -89.05 78.24 08/22/2023 12:03:16 80.80, -89.18 78.25 2.37 25
10 08/25/2023 01:48:07 -80.79,-115.48 100.91 08/25/2023 01:47:56 -80.79,-115.48 100.90 0.08 11



Historial Predications of SNOs between AQUA and NPP
